This demonstration page uses our WeatherBlox Daily Observations layout. Learn more.

Left ArrowRight Arrow

40.92945, -100.16068

Hourly Observations for April 8, 2019

Temp ( °F °C ) Dew Point ( °F °C ) Humidity (%) Winds ( mph kmh ) Pressure ( in mb ) Visibility ( mi km ) Precip ( " mm )
12:15 am 00:15 Clear 49 9.7 34 1.1 55 55 S 7 11 29.99 1016 10 16 0.00 0.00
12:35 am 00:35 Clear 50 9.9 34 1.2 55 55 S 8 13 30.00 1016 N/A 0.00 0.00
12:55 am 00:55 Clear 48 9.1 35 1.8 61 61 S 6 9 30.01 1016 N/A 0.00 0.00
1:15 am 01:15 Clear 51 10.3 34 1.1 53 53 S 8 13 30.00 1016 N/A 0.00 0.00
1:35 am 01:35 Clear 51 10.5 34 1 52 52 S 9 15 30.00 1016 N/A 0.00 0.00
1:55 am 01:55 Clear 53 11.7 32 0 45 45 SSW 9 15 29.99 1015 N/A 0.00 0.00
2:15 am 02:15 Clear 58 14.4 30 -1.2 34 34 SSW 17 28 29.95 1014 N/A 0.00 0.00
2:35 am 02:35 Clear 55 12.5 31 -0.7 40 40 SW 10 17 29.97 1015 N/A 0.00 0.00
2:55 am 02:55 Clear 55 12.6 31 -0.6 40 40 SW 14 22 29.96 1014 N/A 0.00 0.00
3:15 am 03:15 Clear 55 12.8 30 -1 39 39 SW 12 19 29.95 1014 N/A 0.00 0.00
3:35 am 03:35 Clear 55 12.5 31 -0.7 40 40 SW 13 20 29.95 1014 N/A 0.00 0.00
3:55 am 03:55 Clear 53 11.9 31 -0.4 43 43 SW 12 19 29.95 1014 N/A 0.00 0.00
4:15 am 04:15 Clear 55 13 31 -0.6 39 39 SW 13 20 29.93 1014 N/A 0.00 0.00
4:35 am 04:35 Clear 56 13.3 31 -0.6 39 39 SW 13 20 29.93 1014 N/A 0.00 0.00
4:55 am 04:55 Clear 54 12.3 32 -0.1 43 43 WSW 12 19 29.94 1014 N/A 0.00 0.00
5:15 am 05:15 Clear 51 10.7 33 0.6 50 50 WSW 8 13 29.95 1014 N/A 0.00 0.00
5:35 am 05:35 Clear 51 10.8 33 0.3 49 49 W 8 13 29.95 1014 N/A 0.00 0.00
5:55 am 05:55 Clear 51 10.3 33 0.6 51 51 W 9 15 29.96 1015 N/A 0.00 0.00
6:15 am 06:15 Clear 50 9.9 33 0.8 53 53 W 8 13 29.97 1015 N/A 0.00 0.00
6:35 am 06:35 Clear 49 9.6 34 1 55 55 W 9 15 29.97 1015 N/A 0.00 0.00
6:55 am 06:55 Clear 48 9 34 1 58 58 W 5 7 29.98 1015 N/A 0.00 0.00
7:15 am 07:15 Sunny 48 8.7 33 0.8 58 58 WSW 6 9 29.98 1015 N/A 0.00 0.00
7:35 am 07:35 Sunny 48 8.8 34 1.1 59 59 WSW 6 9 29.98 1015 N/A 0.00 0.00
7:55 am 07:55 Sunny 51 10.6 35 1.6 54 54 W 8 13 29.97 1015 N/A 0.00 0.00
8:15 am 08:15 Sunny 55 12.7 36 2 48 48 W 9 15 29.96 1014 N/A 0.00 0.00
8:35 am 08:35 Sunny 57 14.1 37 2.5 46 46 W 9 15 29.95 1014 N/A 0.00 0.00
8:55 am 08:55 Sunny 59 15.1 37 3 44 44 W 9 15 29.94 1014 N/A 0.00 0.00
9:15 am 09:15 Sunny 62 16.5 38 3.5 42 42 W 9 15 29.93 1014 N/A 0.00 0.00
9:35 am 09:35 Sunny 64 17.9 38 3.3 38 38 WNW 16 26 29.92 1013 N/A 0.00 0.00
9:55 am 09:55 Sunny 66 18.7 38 3.4 36 36 WNW 20 31 29.91 1013 N/A 0.00 0.00
10:15 am 10:15 Sunny 67 19.5 38 3.4 35 35 WNW 17 28 29.91 1013 N/A 0.00 0.00
10:35 am 10:35 Sunny 68 20.2 37 2.7 32 32 NW 21 33 29.89 1012 N/A 0.00 0.00
10:55 am 10:55 Sunny 68 20 37 3 33 33 WNW 22 35 29.90 1013 N/A 0.00 0.00
11:15 am 11:15 Sunny 69 20.5 38 3.2 32 32 NW 17 28 29.90 1012 N/A 0.00 0.00
11:35 am 11:35 Sunny 71 21.4 38 3.6 31 31 WNW 16 26 29.90 1013 N/A 0.00 0.00
11:55 am 11:55 Sunny 72 22.2 37 2.5 27 27 NNW 16 26 29.89 1012 N/A 0.00 0.00
12:15 pm 12:15 Sunny 73 22.7 37 3 28 28 N 9 15 29.88 1012 N/A 0.00 0.00
12:35 pm 12:35 Sunny 73 22.8 37 2.7 27 27 NW 9 15 29.87 1011 N/A 0.00 0.00
12:55 pm 12:55 Sunny 74 23.1 36 2.1 25 25 N 10 17 29.87 1011 N/A 0.00 0.00
1:15 pm 13:15 Sunny 75 23.9 36 2.4 25 25 N 12 19 29.86 1011 N/A 0.00 0.00
1:35 pm 13:35 Sunny 75 23.7 36 2.4 25 25 N 15 24 29.87 1012 N/A 0.00 0.00
1:55 pm 13:55 Sunny 75 23.9 36 2.2 24 24 N 8 13 29.86 1011 N/A 0.00 0.00
2:15 pm 14:15 Sunny 75 24 37 2.9 25 25 NNE 15 24 29.86 1011 N/A 0.00 0.00
2:35 pm 14:35 Sunny 75 23.7 38 3.2 26 26 NNW 15 24 29.86 1011 N/A 0.00 0.00
2:55 pm 14:55 Sunny 75 24.1 39 3.8 27 27 N 14 22 29.85 1011 N/A 0.00 0.00
3:15 pm 15:15 Sunny 75 24 38 3.2 26 26 NNW 7 11 29.85 1011 N/A 0.00 0.00
3:35 pm 15:35 Sunny 75 23.8 37 2.9 26 26 N 12 19 29.85 1011 N/A 0.00 0.00
3:55 pm 15:55 Sunny 76 24.2 38 3.6 26 26 NNE 9 15 29.85 1011 N/A 0.00 0.00
4:15 pm 16:15 Sunny 75 23.9 37 3 26 26 NNW 7 11 29.84 1010 N/A 0.00 0.00
4:35 pm 16:35 Sunny 75 24.1 38 3.3 26 26 N 7 11 29.84 1010 N/A 0.00 0.00
4:55 pm 16:55 Sunny 76 24.3 38 3.6 26 26 N 8 13 29.84 1010 N/A 0.00 0.00
5:15 pm 17:15 Sunny 76 24.2 38 3.5 26 26 NNW 6 9 29.85 1011 N/A 0.00 0.00
5:35 pm 17:35 Sunny 75 24.1 38 3.3 26 26 N 8 13 29.84 1010 N/A 0.00 0.00
5:55 pm 17:55 Sunny 75 23.8 38 3.1 26 26 NNW 6 9 29.85 1011 N/A 0.00 0.00
6:15 pm 18:15 Sunny 75 24 38 3.1 26 26 NW 5 7 29.85 1011 N/A 0.00 0.00
6:35 pm 18:35 Sunny 74 23.1 39 3.7 28 28 N 7 11 29.86 1011 N/A 0.00 0.00
6:55 pm 18:55 Partly Cloudy 72 22.2 40 4.2 31 31 N 7 11 29.87 1012 N/A 0.00 0.00
7:15 pm 19:15 Partly Cloudy 70 21.3 40 4.4 33 33 NE 7 11 29.88 1012 N/A 0.00 0.00
7:35 pm 19:35 Sunny 68 20 41 5.2 38 38 NNE 7 11 29.90 1013 N/A 0.00 0.00
7:55 pm 19:55 Sunny 66 19.1 42 5.5 41 41 NE 7 11 29.91 1013 N/A 0.00 0.00
8:15 pm 20:15 Clear 65 18.4 42 5.6 43 43 NE 9 15 29.92 1013 N/A 0.00 0.00
8:35 pm 20:35 Clear 64 18 41 5.2 43 43 NNE 8 13 29.92 1013 N/A 0.00 0.00
8:55 pm 20:55 Clear 61 16.1 43 6.1 52 52 Calm 29.96 1014 N/A 0.00 0.00
9:15 pm 21:15 Clear 62 16.7 41 5 46 46 E 5 7 29.95 1014 N/A 0.00 0.00
9:35 pm 21:35 Clear 60 15.6 42 5.6 52 52 E 5 7 29.96 1015 N/A 0.00 0.00
9:55 pm 21:55 Clear 60 15.6 42 5.5 51 51 E 5 7 29.97 1015 N/A 0.00 0.00
10:15 pm 22:15 Clear 59 14.8 42 5.6 54 54 E 3 6 29.98 1015 N/A 0.00 0.00
10:35 pm 22:35 Clear 57 13.7 43 6 60 60 ENE 5 7 29.99 1015 N/A 0.00 0.00
10:55 pm 22:55 Clear 53 11.7 43 5.9 68 68 NNE 5 7 30.01 1016 N/A 0.00 0.00
11:15 pm 23:15 Clear 54 12.2 42 5.8 65 65 ENE 3 6 29.99 1016 N/A 0.00 0.00
11:35 pm 23:35 Clear 53 11.8 42 5.5 66 66 Calm 29.99 1016 N/A 0.00 0.00
11:55 pm 23:55 Clear 55 12.7 42 5.4 61 61 ENE 5 7 30.00 1016 N/A 0.00 0.00

Powered by AerisWeather